Regional Weather Roundup
Issued by NWS

Home | Current Version | Previous Version | Graphics & Text | Print | Product List | Glossary On
Versions: 1 2 3 4 5 6 7 8 9 10 11 12 13 14 15 16 17 18 19 20 21 22 23 24 25 26 27
000
ASUS45 KBOU 221007
RWRCO

WEATHER ROUNDUP FOR COLORADO
NATIONAL WEATHER SERVICE DENVER/BOULDER CO
300 AM MST WED FEB 22 2017

NOTE: "FAIR" INDICATES FEW OR NO CLOUDS BELOW 12000 FEET WITH NO
SIGNIFICANT WEATHER AND/OR OBSTRUCTIONS TO VISIBILITY.

COZ001>005-013-030-031-221100-
...NORTHWEST COLORADO...

CITY           SKY/WX    TMP DP  RH WIND       PRES   REMARKS
CRAIG          CLOUDY    33  25  72 W3        30.00F
HAYDEN         MOCLDY    30  23  74 S7        29.98F WCI  23
MEEKER         FAIR      45  30  55 SW12      29.96F
MOUNT WERNER   NOT AVBL
STEAMBOAT SPGS MOCLDY    31  26  84 CALM      29.97S
WALDEN         NOT AVBL
$$

COZ006>008-011-221100-
...WEST CENTRAL VALLEYS...

CITY           SKY/WX    TMP DP  RH WIND       PRES   REMARKS
GRAND JUNCTION FAIR      46  35  65 CALM      29.97S
MONTROSE       FAIR      49  26  41 VRB3      30.05S
EAGLE          FAIR      44  22  41 W10       29.98S
RIFLE          FAIR      47  31  53 W5        29.95F
DELTA          FAIR      51  33  51 W6        30.03S
NUCLA          FAIR      48  32  53 S9        30.10F
$$

COZ017>023-064>068-221100-
...SOUTHWEST COLORADO...

CITY           SKY/WX    TMP DP  RH WIND       PRES   REMARKS
DURANGO        FAIR      39  33  79 NE6       30.16F
CORTEZ         FAIR      38  34  85 E8        30.13F
PAGOSA SPRINGS MOCLDY    36  33  88 CALM      30.19F
TELLURIDE      FAIR      39  14  35 CALM      30.18S
WOLF CREEK PAS SNOW      23  23 100 SW26G37   30.25F VSB 1/2 WCI   6
$$

COZ009-010-012-014-032>034-037-058>063-221100-
...CENTRAL COLORADO...

CITY           SKY/WX    TMP DP  RH WIND       PRES   REMARKS
ASPEN          FAIR      41  20  43 VRB5      29.99F
BUENA VISTA    FAIR      40  14  33 SW9       30.02F
COPPER MTN     LGT SNOW  30  14  51 W25G39    30.07F WCI  16
BERTHOUD PASS  MOCLDY    21  10  63 W33G49    30.02F WCI   2
COTTONWOOD PAS FAIR      39   5  24 SW17G36   30.06F
GUNNISON       FAIR      24  20  84 E6        30.07F WCI  17
KREMMLING      FAIR      45  23  42 W13G20    29.96F
LEADVILLE      MOCLDY    32  13  45 MISG      30.02F
MONARCH PASS   FAIR      25  18  74 SW30G43   30.21F WCI   8
SALIDA         FAIR      42  24  48 SW6       30.11F
SUNLIGHT       NOT AVBL
WILKERSON PASS FAIR      27  14  59 SW16G30   30.07F WCI  14
$$

COZ069>075-221100-
...SAN LUIS VALLEY/SANGRE DE CRISTO MOUNTAINS...

CITY           SKY/WX    TMP DP  RH WIND       PRES   REMARKS
ALAMOSA        FAIR      37  30  75 SE12      30.10F
LA VETA PASS   FAIR      32  25  74 N14G26    30.19F WCI  22
SAGUACHE       FAIR      34  27  75 SE8       30.08F WCI  27
$$

COZ035-036-038>040-221100-
...NORTHERN COLORADO FRONT RANGE...

CITY           SKY/WX    TMP DP  RH WIND       PRES   REMARKS
DENVER INTL AP FAIR      49  16  26 SW18      29.85F
DMNS CITY PARK   N/A     48  15  27 SE6G12    29.85F
AURORA         MOCLDY    50  16  26 S15       29.86F
FRONT RANGE AP FAIR      48  18  29 SW14      29.86F
ERIE MUNI ARPT FAIR      38  16  41 S3        29.85S
BOULDER MUN AP FAIR      46  18  31 W6        29.85F
CENTENNIAL     FAIR      51  15  23 SW18G25   29.88F
BROOMFIELD     FAIR      45  16  31 W6        29.86F
FORT COLLINS   FAIR      54  19  25 NW9       29.85R
LONGMONT       FAIR      56  18  22 SW8       29.86F
$$

COZ041-046-047-076>085-087-088-221100-
...PIKES PEAK/PALMER DIVIDE AND SOUTHERN FOOTHILLS...

CITY           SKY/WX    TMP DP  RH WIND       PRES   REMARKS
COLO. SPRINGS  FAIR      51  21  30 W16       29.96F
A. F. ACADEMY  FAIR      47  15  27 SW12      29.96F
SCHRIEVER AFB  FAIR      49  21  32 W22       29.95S
ELLICOTT       FAIR       1  32 100 W5        29.93F WCI  -9
FALCON         FAIR      40  18  40 W10       29.98S
FORT CARSON    FAIR      51  22  32 W16       29.94F
LIMON          FAIR      54  14  20 W17G29    29.84F
MONUMENT HILL  FAIR      43  18  36 SW16G22   29.96F
TRINIDAD       FAIR      51  20  29 SW22      29.96F
$$

COZ042>045-048>051-090-091-221100-
...NORTHEAST COLORADO...

CITY           SKY/WX    TMP DP  RH WIND       PRES   REMARKS
GREELEY ARPT   FAIR      46  25  43 N17       29.85R
AKRON          FAIR      40  15  36 W13       29.80F
BURLINGTON     FAIR      51  18  27 SW9       29.84F
WRAY           NOT AVBL
STERLING       FAIR      46  32  57 NW24G30   29.81R
HOLYOKE        FAIR      36  18  48 SW6       29.79F
FORT MORGAN    FAIR      46  15  28 W15       29.82R
$$

COZ086-089-092>099-221100-
...SOUTHEAST COLORADO...

CITY           SKY/WX    TMP DP  RH WIND       PRES   REMARKS
PUEBLO         FAIR      56  23  27 S7        29.89F
LA JUNTA       FAIR      54  24  31 SW16      29.89F
LAMAR          FAIR      46  17  31 N3        29.86F
SPRINGFIELD      N/A     52  20  28 W15       29.88F
$$




USA.gov is the U.S. government's official web portal to all federal, state and local government web resources and services.